Location: Beccas
(43.4309°N, 0.1528°E)
Time: 19:58:50
(UTC+00:00)

Cosmos 1934 Rocket - Pass Details

Date: 15 October 2021
Orbit: 938 x 999 km, 83.0° (Epoch: 29 November)

Event Time Altitude Azimuth Distance (km) Brightness Sun altitude
Rises 19:09:50 0° 187° (S) 3,640 7.0 -21.4°
Reaches altitude 10° 19:12:20 10° 188° (S) 2,688 6.3 -21.8°
Maximum altitude 19:18:30 86° 276° (W) 960 3.9 -22.9°
Drops below altitude 10° 19:24:37 10° 7° (N) 2,672 6.3 -24.0°
Sets 19:27:06 0° 8° (N) 3,616 7.0 -24.5°
